User: anonymous   Login
Location: Kuppenheim
(48.8299°N, 8.2568°E)
Time: 23:45:56
(UTC+00:00)
Language:

Cosmos 1943 - Orbit

View from above orbital plane
View from above orbital plane
View from above satellite
View from above satellite

Ground track
Ground track

The orbit data is extracted from the following two-line orbital elements,

1 19119U 88039A   21262.45908959  .00000270  00000-0  16330-3 0  9996
2 19119  71.0021  75.4309 0012741 220.0838 181.6384 14.15180342721853
Epoch (UTC): 19 September 2021 11:01:05
Eccentricity: 0.0012741
inclination: 71.0021°
perigee height: 832 km
apogee height: 851 km
right ascension of ascending node: 75.4309°
argument of perigee: 220.0838°
revolutions per day: 14.15180342
mean anomaly at epoch: 181.6384°
orbit number at epoch: 72185

The dashed part of the orbit path shows where the satellite is in the earth's shadow,  

DLR